TimeEST,TemperatureF,Dew PointF,Humidity,Sea Level PressureIn,VisibilityMPH,Wind Direction,Wind SpeedMPH,Gust SpeedMPH,PrecipitationIn,Events,Conditions,WindDirDegrees,DateUTC
12:15 AM,55.4,53.6,94,30.18,10.0,Calm,Calm,-,N/A,,Clear,0,2012-11-19 05:15:00
12:55 AM,55.4,53.6,94,30.17,10.0,North,4.6,-,N/A,,Clear,10,2012-11-19 05:55:00
1:15 AM,55.4,51.8,88,30.17,9.0,North,4.6,-,N/A,,Clear,350,2012-11-19 06:15:00
1:55 AM,53.6,51.8,94,30.16,9.0,NW,3.5,-,N/A,,Clear,310,2012-11-19 06:55:00
2:15 AM,53.6,51.8,94,30.17,9.0,Calm,Calm,-,N/A,,Clear,0,2012-11-19 07:15:00
2:35 AM,53.6,53.6,100,30.17,9.0,NW,3.5,-,N/A,,Clear,320,2012-11-19 07:35:00
2:55 AM,53.6,51.8,94,30.17,8.0,WNW,3.5,-,N/A,,Clear,300,2012-11-19 07:55:00
3:15 AM,53.6,53.6,100,30.17,8.0,NW,5.8,-,N/A,,Clear,320,2012-11-19 08:15:00
3:35 AM,53.6,53.6,100,30.17,8.0,NW,5.8,-,N/A,,Clear,320,2012-11-19 08:35:00
3:55 AM,53.6,53.6,100,30.17,9.0,NW,6.9,-,N/A,,Clear,320,2012-11-19 08:55:00
4:15 AM,51.8,51.8,100,30.16,8.0,NNW,8.1,-,N/A,,Clear,330,2012-11-19 09:15:00
4:35 AM,51.8,51.8,100,30.17,9.0,NNW,5.8,-,N/A,,Clear,340,2012-11-19 09:35:00
4:55 AM,51.8,51.8,100,30.16,8.0,NNW,5.8,-,N/A,,Clear,340,2012-11-19 09:55:00
5:15 AM,51.8,51.8,100,30.16,9.0,NNW,6.9,-,N/A,,Clear,340,2012-11-19 10:15:00
5:35 AM,51.8,51.8,100,30.16,9.0,NNW,4.6,-,N/A,,Clear,340,2012-11-19 10:35:00
5:55 AM,51.8,51.8,100,30.16,8.0,NNW,3.5,-,N/A,,Clear,330,2012-11-19 10:55:00
6:15 AM,50.0,50.0,100,30.16,7.0,NW,3.5,-,N/A,,Clear,320,2012-11-19 11:15:00
2:35 PM,59.0,51.8,77,30.12,8.0,North,6.9,-,N/A,,Overcast,360,2012-11-19 19:35:00
2:55 PM,59.0,51.8,77,30.11,8.0,North,8.1,-,N/A,,Overcast,360,2012-11-19 19:55:00
3:15 PM,59.0,51.8,77,30.11,9.0,North,8.1,-,N/A,,Overcast,10,2012-11-19 20:15:00
3:35 PM,57.2,51.8,82,30.11,7.0,NE,6.9,-,N/A,,Overcast,40,2012-11-19 20:35:00
3:55 PM,57.2,51.8,82,30.11,8.0,NNE,6.9,-,N/A,,Overcast,20,2012-11-19 20:55:00
4:15 PM,57.2,51.8,82,30.12,8.0,NNE,6.9,-,N/A,,Overcast,20,2012-11-19 21:15:00
4:35 PM,57.2,51.8,82,30.11,7.0,NNE,6.9,-,N/A,,Overcast,20,2012-11-19 21:35:00
4:55 PM,57.2,51.8,82,30.12,7.0,North,6.9,-,N/A,,Overcast,10,2012-11-19 21:55:00
5:15 PM,57.2,51.8,82,30.12,7.0,North,9.2,-,N/A,,Overcast,350,2012-11-19 22:15:00
5:35 PM,57.2,51.8,82,30.12,5.0,North,8.1,-,N/A,,Haze,10,2012-11-19 22:35:00
5:55 PM,57.2,51.8,82,30.13,8.0,North,8.1,-,N/A,,Overcast,10,2012-11-19 22:55:00
6:15 PM,57.2,51.8,82,30.13,9.0,NNE,6.9,-,N/A,,Overcast,20,2012-11-19 23:15:00
6:35 PM,57.2,51.8,82,30.13,9.0,North,8.1,-,N/A,,Overcast,360,2012-11-19 23:35:00
6:55 PM,57.2,51.8,82,30.12,9.0,NNE,11.5,-,N/A,,Overcast,20,2012-11-19 23:55:00
7:35 PM,57.2,51.8,82,30.12,9.0,NNE,10.4,-,N/A,,Overcast,30,2012-11-20 00:35:00
7:55 PM,57.2,51.8,82,30.13,8.0,North,6.9,-,N/A,,Overcast,360,2012-11-20 00:55:00
8:15 PM,57.2,51.8,82,30.13,7.0,NNE,11.5,-,N/A,,Overcast,20,2012-11-20 01:15:00
8:35 PM,57.2,51.8,82,30.13,8.0,North,5.8,-,N/A,,Overcast,10,2012-11-20 01:35:00
8:55 PM,55.4,51.8,88,30.13,7.0,North,9.2,-,N/A,,Overcast,350,2012-11-20 01:55:00
9:15 PM,55.4,51.8,88,30.13,8.0,NNW,6.9,-,N/A,,Overcast,340,2012-11-20 02:15:00
9:35 PM,57.2,51.8,82,30.13,9.0,NW,4.6,-,N/A,,Overcast,320,2012-11-20 02:35:00
9:55 PM,55.4,51.8,88,30.13,9.0,NNW,6.9,-,N/A,,Overcast,340,2012-11-20 02:55:00
10:15 PM,55.4,51.8,88,30.13,7.0,NNW,6.9,-,N/A,,Overcast,330,2012-11-20 03:15:00
10:35 PM,55.4,53.6,94,30.13,5.0,NNW,8.1,-,N/A,,Overcast,340,2012-11-20 03:35:00
10:55 PM,55.4,53.6,94,30.12,8.0,NNW,6.9,-,N/A,,Overcast,330,2012-11-20 03:55:00
11:15 PM,55.4,51.8,88,30.12,7.0,NNW,9.2,-,N/A,,Overcast,330,2012-11-20 04:15:00
11:55 PM,55.4,51.8,88,30.11,10.0,NW,4.6,-,N/A,,Overcast,310,2012-11-20 04:55:00